Hourly Data Report for June 04, 2003

SHERBROOKE A
QUEBEC

45°26'00.000" N
71°41'00.000" W
241.40 m
7028124
71610
YSC

Download Data

Hourly Data (June 2003)
Hourly Data Report for June 4, 2003
TIME
LST
Temp Definition
°C
Dew Point Definition
°C
Rel Hum Definition
%
Precip. Amount Definition
mm

Wind Dir Definition
10's deg

Wind Spd Definition
km/h
Visibility Definition
km
Stn Press Definition
kPa
Hmdx Definition


Wind Chill Definition


Weather Definition


00:00 3.1 1.4 89   12 6 15.0 98.63      
01:00 2.8 1.8 93   12 4 15.0 98.68      
02:00 2.0 1.1 94   10 4 15.0 98.70      
03:00 1.3 0.3 93   12 6 15.0 98.71      
04:00 0.4 -0.5 94     0 15.0 98.77      
05:00 1.7 0.6 92   10 6 15.0 98.80      
06:00 5.2 2.9 85     0 15.0 98.88      
07:00 8.6 3.2 69   4 4 24.1 98.90     Clear
08:00 12.8 3.6 53     0 24.1 98.90     Mainly Clear
09:00 15.2 -0.9 33   4 4 24.1 98.89     Mainly Clear
10:00 16.3 -0.5 32   8 6 24.1 98.86     Mainly Clear
11:00 17.2 -3.7 24     0 24.1 98.80     Mainly Clear
12:00 19.0 1.1 30   5 7 24.1 98.76     Mainly Clear
13:00 20.3 2.9 32   28 6 24.1 98.71     Mainly Clear
14:00 20.6 1.6 28   7 6 24.1 98.65     Mainly Clear
15:00 21.5 1.1 26   35 7 24.1 98.57     Mainly Clear
16:00 21.5 1.4 26   3 9 24.1 98.52     Mainly Clear
17:00 21.4 2.3 28   1 7 15.0 98.47      
18:00 20.5 1.9 29   1 7 15.0 98.44      
19:00 17.4 2.7 37   4 6 15.0 98.43      
20:00 12.3 4.8 60   8 6 15.0 98.42      
21:00 11.6 4.1 60   7 9 15.0 98.42      
22:00 11.4 5.2 66   11 9 15.0 98.42      
23:00 11.1 4.8 65   11 7 15.0 98.40      

Notes on Data Quality.

Legend

  • E = Estimated
  • M = Missing
  • NA = Not Available*
  • [empty] = Indicates an unobserved value
Date modified: